Location: Dehesa de la Cepeda
(40.6574°N, 4.3013°W)
Time: 18:37:29
(UTC+00:00)

Explorer 7 - Pass Details

Date: 11 August 2021
Orbit: 484 x 676 km, 50.3° (Epoch: 16 September)

Event Time Altitude Azimuth Distance (km) Brightness Sun altitude
Exits shadow 02:40:26 31° 349° (N) 870 8.1 -25.6°
Drops below altitude 10° 02:43:34 10° 43° (NE) 1,680 10.3 -25.2°
Sets 02:45:56 0° 54° (NE) 2,580 11.5 -25.0°
